GEFSMW_con_prob3kmehi_324.txt.gz
EHI
14 15 17 15 11 7 6 5 4 5 6 6 6 3 1 0 1 1 0 0 0 0 0 0 0 0 0 1 1 2 3 3 3 2 2 1 0 0 0 0 0 0 0
17 17 17 16 11 8 7 7 7 6 6 6 6 4 2 1 1 1 0 0 0 0 0 0 0 1 1 2 2 2 2 3 2 1 1 0 0 0 0 0 0 0 0
20 20 19 16 12 8 7 8 8 7 6 7 7 7 5 3 2 1 0 0 0 0 0 0 0 1 2 2 1 1 1 2 1 0 0 0 0 0 0 0 1 0 0
21 21 19 16 12 9 7 7 6 4 6 9 10 10 8 6 3 1 1 1 0 0 0 0 0 1 1 1 0 0 0 0 0 0 0 0 0 0 0 0 0 0 0
18 18 17 14 12 11 11 8 4 2 5 10 12 10 6 4 3 1 1 1 1 1 0 0 0 0 0 0 0 0 0 0 0 0 0 0 0 0 0 0 0 0 0
16 15 13 13 14 16 18 15 10 7 8 11 12 9 5 3 2 1 1 1 0 0 0 0 0 0 0 0 0 0 0 0 0 0 0 0 0 0 0 0 0 0 0
13 12 12 14 17 21 25 25 22 18 15 13 12 10 7 4 3 2 1 1 1 1 0 0 0 0 0 0 0 0 0 0 0 0 0 0 0 0 0 0 0 0 0
11 12 14 18 22 26 31 34 33 28 23 18 16 13 10 7 6 5 4 3 3 2 1 0 0 1 1 1 0 0 0 0 0 0 0 0 1 0 0 0 0 0 0
12 15 18 22 25 30 35 39 39 33 27 23 21 17 14 12 10 8 7 5 3 2 1 1 1 1 2 2 1 0 0 0 0 0 0 0 0 0 0 0 0 0 0
16 19 19 20 25 30 34 40 41 36 28 25 23 20 18 17 14 11 9 7 4 2 2 3 3 3 4 3 2 1 1 0 1 1 0 0 0 0 0 0 0 0 0
20 21 18 18 22 29 35 41 44 40 32 28 27 24 21 20 18 14 10 8 6 4 3 3 3 4 5 6 6 4 3 2 2 1 0 0 0 0 0 0 0 0 0
22 20 18 17 22 29 36 41 45 43 38 34 32 28 25 24 21 15 11 9 7 5 5 5 5 6 7 9 9 7 6 4 2 1 0 0 0 0 0 1 1 0 1
22 20 18 19 23 29 35 39 42 43 40 39 37 33 30 28 23 16 12 10 7 6 8 9 8 8 9 9 9 8 7 6 3 1 0 0 0 0 1 2 2 1 1
23 22 21 21 22 27 33 36 40 41 40 40 39 37 33 29 24 18 13 11 10 9 11 12 10 7 7 7 7 7 7 7 6 3 1 0 0 0 1 3 3 2 2
25 25 25 22 21 24 30 34 37 39 39 39 39 36 34 29 24 20 15 13 12 12 13 12 9 6 6 6 6 7 8 9 9 6 3 1 1 1 2 3 4 4 3
26 27 27 24 23 24 28 33 36 37 37 37 36 33 32 30 25 21 18 16 14 14 15 13 10 8 7 6 5 6 8 10 11 9 6 3 2 2 3 3 3 4 5
25 27 27 26 25 25 29 33 35 35 36 35 31 29 29 29 28 25 22 20 18 17 17 15 11 9 8 6 4 4 6 9 10 9 8 5 4 5 5 3 2 3 4
22 23 24 24 24 25 29 34 35 34 36 34 29 28 29 29 28 28 27 25 23 21 20 17 12 9 7 5 3 2 4 6 6 6 6 6 6 6 5 3 3 4 4
20 20 22 24 24 24 28 34 36 36 36 34 31 30 30 29 29 28 27 26 24 22 21 18 13 10 8 6 3 2 4 4 3 3 4 4 4 4 3 3 4 5 4
20 21 23 25 25 24 26 32 36 35 32 30 31 31 32 32 31 29 26 25 24 23 22 19 15 12 10 6 2 2 3 3 2 1 2 3 3 3 2 3 5 4 3
20 21 23 26 26 24 25 29 33 30 25 25 28 30 31 33 33 30 27 25 25 24 23 21 18 16 13 8 3 1 3 4 4 4 3 3 3 2 2 2 3 3 1
19 19 21 24 24 24 25 27 28 26 24 26 28 29 29 32 32 30 28 27 25 23 22 22 20 18 15 11 5 2 2 3 6 7 5 3 2 1 1 1 1 2 1
15 17 19 20 21 23 25 25 25 26 28 30 30 29 29 29 29 29 28 27 25 20 19 19 18 16 15 12 8 4 1 2 5 6 5 2 1 0 0 0 1 2 2
12 15 17 17 17 19 21 22 24 27 30 30 30 29 28 27 27 27 27 27 24 20 18 18 18 17 16 14 11 6 2 1 2 2 3 2 1 1 1 1 1 2 2
13 15 18 17 15 16 19 20 23 26 27 27 27 27 25 25 25 24 23 21 19 17 16 17 19 18 17 15 10 6 3 1 0 0 1 2 3 3 3 3 2 2 2
14 15 18 17 16 16 18 21 24 25 24 24 25 25 24 23 22 21 19 15 13 11 11 14 17 17 16 13 7 3 2 1 0 1 2 3 5 5 5 5 4 4 4

GEFSMW_con_prob3kmehi_330.txt.gz
EHI
3 3 3 3 2 1 1 0 0 1 2 1 1 1 0 0 0 0 0 0 0 0 0 0 0 0 0 0 0 0 0 0 0 0 0 0 0 0 0 0 0 0 0
3 3 4 4 3 2 2 1 1 1 2 2 2 2 1 0 0 0 0 0 0 0 0 0 0 0 0 0 0 0 0 0 0 0 0 0 0 0 0 0 0 0 0
3 4 5 5 4 3 3 2 1 1 2 3 3 3 1 0 0 0 0 0 0 0 0 0 0 0 0 0 0 0 0 0 0 0 0 0 0 0 0 0 0 0 0
3 4 6 6 5 3 3 2 1 1 2 3 4 4 2 0 0 0 0 0 0 0 0 0 0 0 0 0 0 0 0 0 0 0 0 0 0 0 0 0 0 0 0
2 5 7 7 6 4 2 1 0 0 1 2 4 5 4 2 1 0 0 0 0 0 0 0 0 0 0 0 0 0 0 0 0 0 0 0 0 0 0 0 0 0 0
2 5 7 7 6 4 1 0 0 0 0 1 3 5 5 3 1 0 0 0 0 0 0 0 0 0 0 0 0 0 0 0 0 0 0 0 1 1 0 0 0 0 0
4 4 6 7 7 5 2 0 0 0 0 0 1 3 3 1 1 0 0 0 0 0 0 0 0 0 0 0 0 0 0 0 0 0 0 0 1 1 0 0 0 0 0
5 4 5 7 8 6 3 2 2 1 0 0 0 1 1 0 0 0 0 0 0 0 0 0 0 0 0 0 0 0 0 0 0 0 0 0 1 1 0 0 0 0 0
5 4 4 6 7 7 5 4 3 2 1 1 1 0 0 0 0 0 0 0 0 0 0 0 0 0 0 0 0 0 0 0 0 0 0 0 0 0 0 0 0 0 0
3 3 3 4 6 6 6 5 4 2 1 2 3 2 2 1 0 0 0 0 0 0 0 0 0 0 0 0 0 0 0 0 0 0 0 0 0 1 0 0 0 0 0
1 2 3 3 4 6 6 6 4 3 3 4 6 7 6 3 1 1 0 1 1 0 0 0 0 0 0 0 0 0 0 0 0 0 0 0 0 0 0 0 0 0 1
1 2 3 4 6 7 8 8 7 6 6 8 10 12 11 8 4 3 2 2 2 1 1 0 0 0 0 0 0 0 0 0 0 0 0 0 0 0 0 0 0 0 1
2 3 4 6 8 10 11 11 11 10 11 12 13 14 13 10 7 5 4 3 3 2 2 1 1 1 0 0 0 0 0 0 0 0 1 1 1 1 0 0 0 0 1
4 4 5 7 10 11 12 13 14 16 18 18 16 15 13 11 8 6 4 3 3 2 3 3 2 2 1 1 1 1 1 0 0 0 0 0 0 1 1 1 1 1 1
6 6 7 8 10 10 11 13 17 21 25 25 19 15 13 11 8 6 5 4 3 3 3 3 3 2 2 2 2 2 2 1 1 1 0 0 0 0 0 1 1 1 1
7 7 8 10 10 9 10 13 17 23 28 27 21 14 12 12 11 9 8 7 6 5 4 3 2 1 1 1 1 2 3 3 3 3 2 1 1 1 1 1 1 1 0
7 8 9 10 11 10 11 13 17 23 27 25 20 14 11 12 13 13 11 10 9 8 7 5 3 1 0 0 0 1 3 3 4 5 5 4 3 3 3 2 1 1 1
6 6 8 9 10 11 12 15 20 25 26 24 19 14 11 11 13 13 12 11 10 9 8 6 4 2 1 0 0 1 3 4 4 5 6 5 4 4 3 3 2 2 2
4 6 8 8 9 10 12 16 22 26 26 24 19 14 11 11 12 13 12 12 11 11 9 7 5 4 2 1 0 1 4 5 5 4 4 4 4 3 3 3 3 3 3
5 6 9 10 9 9 11 15 21 24 23 22 18 14 11 11 11 13 14 13 13 13 11 8 7 7 6 2 0 2 5 6 5 4 3 2 2 2 2 2 3 4 4
5 7 10 11 10 9 10 14 19 20 18 17 15 12 11 10 10 12 14 15 15 16 14 10 9 9 8 4 1 1 4 6 5 5 4 2 1 1 0 1 2 3 3
4 6 9 10 9 10 12 15 18 17 14 12 11 12 12 11 11 12 14 15 16 16 15 13 10 9 8 5 2 1 2 4 6 6 4 2 0 0 0 0 1 1 1
4 6 7 8 8 10 13 17 18 17 14 11 11 12 12 11 12 13 14 14 14 14 14 12 9 8 8 7 4 2 1 2 4 5 3 1 0 0 0 0 0 0 0
7 7 7 7 8 10 13 16 17 16 15 13 12 12 12 12 12 13 13 13 13 13 12 10 9 9 10 9 6 4 4 4 4 3 2 0 0 0 0 0 0 0 0
9 9 10 9 9 10 12 14 15 14 14 13 12 12 13 13 13 12 11 11 11 10 9 8 8 10 11 9 6 5 6 5 4 3 2 1 0 0 0 0 1 1 1
9 11 12 11 9 9 10 12 14 13 12 12 12 12 13 14 14 12 10 9 8 6 5 5 7 10 9 6 3 4 5 4 3 2 2 2 1 0 0 1 2 2 2

GEFSMW_con_prob3kmehi_336.txt.gz
EHI
9 6 3 2 4 8 10 10 11 13 12 9 7 5 3 2 1 0 0 0 0 1 1 1 0 0 0 0 0 0 1 2 2 2 1 0 1 1 2 3 3 1 0
11 9 6 3 4 7 10 10 12 14 13 11 7 5 3 3 2 1 1 1 1 1 1 0 0 0 0 0 0 0 0 1 1 1 0 0 1 1 1 2 2 1 1
13 12 10 6 4 7 10 12 13 15 15 12 9 5 4 4 4 3 3 2 1 1 0 0 1 1 1 1 1 0 0 0 0 0 0 0 0 0 0 0 1 1 2
12 13 13 10 7 7 11 13 15 15 15 13 10 8 7 6 5 5 5 5 3 1 0 0 2 2 1 1 1 0 0 0 0 0 0 1 1 1 1 1 1 2 2
11 13 14 12 10 9 11 14 17 16 15 13 12 11 9 7 6 5 7 7 5 3 1 0 1 1 1 1 0 0 0 0 0 0 1 2 2 2 2 2 2 2 2
10 13 15 15 12 10 11 16 20 20 17 14 13 12 10 8 7 7 7 6 5 4 3 2 1 1 1 1 0 0 0 0 0 1 2 2 3 3 3 3 3 2 2
9 12 15 15 12 11 13 19 24 24 20 18 16 13 10 9 9 8 7 6 5 5 5 4 3 1 0 0 0 0 0 0 0 1 2 2 2 3 3 3 3 3 2
6 10 13 13 13 13 15 21 25 25 23 22 21 18 13 10 10 10 10 8 7 7 5 4 3 1 0 0 0 0 0 0 0 1 2 3 3 3 3 4 3 2 1
5 7 9 11 13 15 18 22 25 27 25 25 26 22 17 14 13 12 11 9 9 7 4 3 3 1 1 1 1 0 0 0 0 1 3 3 3 3 3 3 3 2 1
5 7 8 9 11 15 20 23 24 25 25 24 24 22 20 19 17 14 12 11 10 7 4 3 3 3 3 3 2 1 0 1 1 2 3 4 3 2 2 2 2 2 2
6 8 8 8 10 13 19 22 22 21 21 21 20 19 21 22 20 17 15 13 12 9 6 5 4 4 5 5 5 2 1 2 3 4 4 4 3 3 2 1 1 1 1
4 6 8 9 11 14 17 19 18 18 20 20 18 19 23 25 24 20 18 17 15 11 9 7 6 5 5 6 6 4 3 4 5 6 5 4 5 5 5 3 1 1 2
4 6 9 12 16 17 17 17 15 17 22 24 23 23 25 27 26 22 19 19 18 15 13 12 11 8 6 6 8 7 5 5 7 7 7 7 8 9 8 6 5 5 6
5 8 12 18 22 23 21 20 17 19 26 31 30 28 28 27 25 21 20 20 20 17 15 14 14 13 10 9 11 10 8 8 9 8 9 11 12 12 10 10 10 9 9
7 11 16 22 26 28 27 26 24 25 31 36 37 35 32 30 26 23 23 23 21 17 15 15 15 15 14 12 12 12 12 11 11 10 10 11 11 11 9 9 10 10 11
11 13 18 24 28 29 30 31 31 32 36 38 38 37 36 34 31 28 26 25 22 19 17 15 14 15 14 10 8 10 14 15 14 13 12 11 10 9 9 8 6 6 8
18 18 20 25 29 29 29 32 35 36 37 36 36 36 35 35 34 32 28 25 23 21 19 16 15 16 13 7 3 6 13 17 16 15 13 11 10 10 10 8 5 4 5
22 22 21 24 28 29 29 32 35 36 36 36 36 35 35 35 35 33 30 25 21 21 21 20 19 19 15 8 2 4 12 17 17 17 15 13 12 11 11 10 8 8 8
19 19 19 20 24 29 33 35 36 36 36 37 37 36 37 37 36 32 29 24 20 19 20 22 22 22 19 10 2 4 13 18 19 19 17 14 11 9 9 11 13 13 12
16 15 17 18 23 31 38 40 39 38 37 37 37 38 39 39 35 31 26 22 20 18 18 21 24 25 22 12 4 5 14 20 21 21 19 14 9 7 6 11 15 16 14
15 16 20 22 25 32 38 41 41 39 36 37 38 39 39 38 34 29 24 20 18 18 18 20 23 24 21 13 5 5 12 19 23 22 20 14 7 4 4 7 12 13 12
14 18 24 26 27 31 35 38 40 38 36 37 40 41 40 37 34 29 23 19 18 19 20 20 20 19 16 11 5 4 7 13 20 23 19 13 6 1 1 3 5 6 6
13 17 22 24 25 28 30 32 36 39 37 37 39 41 40 37 34 29 22 20 20 20 19 18 17 16 14 10 7 4 3 6 13 18 14 8 4 1 1 1 1 3 5
12 15 19 19 21 24 25 26 33 38 38 35 35 37 35 32 31 28 23 20 20 20 18 17 17 17 16 12 10 8 6 5 8 11 10 6 4 3 3 2 3 6 9
13 15 17 18 20 23 24 26 31 36 37 34 32 30 27 25 25 25 22 19 18 16 16 15 15 16 15 10 9 9 8 8 8 9 9 7 6 6 5 7 8 9 11
14 15 16 18 21 24 25 27 31 34 35 33 31 28 23 21 22 22 20 17 15 14 12 12 13 14 11 6 4 5 6 7 7 8 9 8 8 7 7 9 11 12 11

GEFSMW_con_prob3kmehi_342.txt.gz
EHI
13 14 14 17 23 26 27 27 26 27 28 24 20 20 17 13 11 14 16 12 7 6 6 5 5 5 5 4 3 2 4 6 8 9 8 9 12 13 13 11 8 7 8
15 15 15 19 25 29 29 28 29 31 31 27 23 21 18 16 15 17 19 16 10 7 6 5 6 6 6 6 5 4 5 7 7 6 5 6 9 10 9 8 8 8 10
17 17 17 21 27 31 31 32 35 36 35 31 26 22 20 20 19 20 22 20 15 10 7 7 8 9 9 8 7 6 7 8 7 5 2 2 6 7 7 7 9 11 12
17 18 19 22 27 29 30 35 41 43 39 34 28 24 22 20 21 22 23 21 19 15 10 10 13 13 10 9 8 9 9 9 8 6 3 2 4 7 8 8 10 11 11
16 20 23 25 24 25 29 38 45 46 42 37 32 27 23 21 22 22 21 20 19 17 14 13 16 16 13 10 8 9 9 9 9 8 6 3 4 6 7 8 9 9 8
14 20 26 27 24 24 32 42 49 49 44 39 35 30 28 27 26 25 22 19 18 18 17 17 18 18 16 12 9 7 8 8 10 11 10 7 5 5 5 5 6 6 5
12 18 27 30 29 29 37 49 57 53 47 43 38 35 34 34 32 29 26 22 20 20 22 23 22 20 17 14 11 10 9 9 10 12 13 11 8 5 4 3 3 4 4
13 17 26 33 36 38 43 54 61 58 50 45 43 41 40 38 34 32 31 28 24 23 27 29 26 23 19 15 14 13 13 12 11 10 12 13 10 7 6 4 3 2 2
14 17 24 32 38 42 47 55 61 61 55 49 46 44 43 40 36 35 33 30 26 25 28 30 27 24 21 17 15 15 15 14 13 12 12 11 8 6 7 6 3 2 2
15 19 24 28 33 38 44 50 56 58 55 51 47 43 43 42 39 38 35 31 28 29 30 28 25 25 23 19 17 17 15 14 14 15 13 10 7 5 7 8 6 4 4
16 22 25 25 27 31 38 44 49 52 52 50 47 44 44 44 42 41 38 36 35 36 35 29 26 28 27 23 19 16 14 13 14 15 13 11 8 6 7 8 7 5 5
14 19 24 24 24 30 37 43 47 49 51 52 50 47 45 45 44 43 42 43 44 42 38 33 31 32 31 26 22 17 14 15 16 16 16 15 12 11 10 8 7 6 6
12 17 23 27 28 32 39 44 46 47 51 54 52 49 48 49 47 45 45 46 46 43 39 36 35 35 31 27 25 21 17 17 19 20 21 19 16 14 13 11 9 7 6
13 18 28 34 35 36 40 43 42 44 50 53 52 51 53 55 52 49 47 47 44 41 38 37 37 35 31 27 25 23 20 20 21 24 24 22 18 16 14 13 13 11 9
17 23 34 40 40 40 41 41 41 44 50 53 53 54 57 59 57 53 50 47 42 38 36 35 35 33 28 24 23 22 21 21 23 25 24 20 18 15 12 11 12 13 12
22 28 36 41 42 44 46 46 45 46 49 52 55 57 61 62 60 56 51 46 40 36 33 32 31 30 25 19 18 20 21 22 23 25 22 17 16 15 11 8 8 9 9
29 31 34 37 41 43 47 50 49 47 47 49 53 59 63 63 60 56 52 46 40 34 31 30 29 27 22 15 11 13 19 23 25 25 22 16 15 17 15 11 9 9 8
34 31 30 32 35 38 42 46 47 46 46 47 50 57 62 63 60 56 53 49 42 34 30 29 28 24 19 12 6 7 15 23 26 25 21 17 16 18 18 17 18 18 17
34 31 28 29 34 38 40 42 43 45 46 47 50 56 62 62 59 57 53 49 42 35 30 28 27 23 17 11 5 5 13 22 27 26 22 19 18 18 19 22 26 28 27
32 31 29 31 38 44 44 43 42 44 48 50 53 57 61 60 58 56 52 46 39 33 28 27 27 25 19 12 5 5 13 22 27 28 25 20 16 13 13 19 25 28 28
32 33 34 37 46 51 50 48 46 45 47 52 56 57 57 56 55 53 49 43 36 31 28 28 28 27 23 16 7 5 11 19 25 28 25 17 10 6 5 10 17 19 18
31 35 39 45 52 56 55 52 49 47 46 49 52 54 52 50 49 49 46 41 35 30 29 28 26 25 25 20 10 4 6 13 21 23 20 11 4 1 1 3 7 8 8
29 32 38 46 52 55 54 51 49 47 45 45 46 48 47 45 45 45 44 39 33 29 27 24 22 23 25 22 13 4 2 6 12 15 11 5 1 0 0 0 2 3 4
28 30 35 41 45 47 46 45 47 46 43 42 43 43 42 41 41 41 38 33 28 25 23 20 19 22 25 23 15 9 5 4 5 6 6 4 3 3 3 3 4 6 6
29 30 33 36 37 37 38 40 44 45 44 42 42 41 38 37 36 34 28 21 18 15 15 15 16 19 21 18 13 10 9 6 4 3 6 8 9 9 9 9 10 11 12
29 28 31 33 32 32 34 38 43 46 45 43 41 40 37 35 32 27 18 11 8 8 7 9 13 16 15 12 9 9 8 7 5 4 7 12 12 12 12 12 12 14 15

GEFSMW_con_prob3kmehi_348.txt.gz
EHI
16 17 17 14 11 8 7 7 8 7 6 4 1 0 0 0 0 0 1 2 1 0 0 0 0 0 0 0 0 0 0 0 0 0 0 0 0 0 0 0 0 1 3
17 19 18 16 14 12 9 8 9 10 9 6 2 1 1 0 0 0 1 1 1 0 0 0 0 0 0 0 0 0 0 0 0 0 0 0 0 0 0 0 1 2 3
18 19 19 18 16 14 12 10 11 14 15 12 7 5 3 2 0 0 0 0 1 1 1 1 1 1 0 0 0 0 0 0 0 0 0 0 0 0 0 0 1 2 2
17 19 21 19 15 12 11 11 12 16 19 18 15 10 7 4 2 0 0 0 0 1 2 2 2 2 1 0 0 0 0 0 0 0 0 0 0 0 0 0 0 1 1
15 18 22 21 16 12 11 11 12 15 19 21 19 15 10 7 5 3 1 1 0 1 2 3 3 3 2 1 0 0 0 0 0 0 0 0 0 0 0 1 1 1 1
12 16 22 23 20 17 15 13 14 15 17 19 20 18 14 11 10 8 5 2 1 1 2 3 3 4 4 2 1 1 0 0 0 0 0 0 0 1 1 2 1 1 1
12 16 20 21 19 19 19 18 19 19 17 17 19 20 18 17 15 13 8 5 2 1 1 2 3 4 5 5 3 2 1 1 1 1 0 0 1 3 3 2 1 0 0
14 17 18 17 15 16 18 20 21 21 19 17 18 20 20 20 18 14 9 5 3 2 1 1 1 3 4 5 5 4 3 2 2 1 0 0 2 3 4 2 0 0 0
13 15 16 14 12 12 14 17 18 19 18 17 17 20 22 20 18 14 8 5 3 3 2 1 1 2 3 4 5 5 4 3 3 2 1 1 1 3 2 1 0 0 0
13 14 14 13 11 10 12 14 16 18 19 18 19 21 23 21 18 15 9 5 4 4 3 3 2 2 3 3 4 5 4 3 3 3 2 2 1 1 1 0 0 0 0
13 13 12 12 12 13 14 16 18 21 22 21 20 22 23 21 18 16 12 7 5 5 5 4 4 4 4 4 4 4 5 4 3 3 4 3 1 0 0 0 0 0 0
14 12 11 12 16 18 19 19 21 22 22 22 22 21 21 21 20 19 16 11 8 8 8 6 6 6 5 4 4 4 5 6 5 5 6 4 2 0 0 0 0 0 0
15 13 12 14 19 22 22 22 21 22 23 25 24 22 21 22 21 22 21 16 12 12 12 9 9 9 7 5 3 4 5 5 4 6 7 5 3 2 1 1 1 0 0
16 15 14 16 20 23 24 25 25 25 27 28 27 25 24 23 22 22 21 17 14 14 14 12 12 12 9 6 4 4 3 2 3 5 6 5 5 5 4 3 2 1 1
16 16 16 17 20 23 26 28 29 28 27 28 28 26 25 24 22 22 20 17 15 14 12 12 13 14 12 8 6 5 4 2 2 3 3 4 6 6 5 4 4 3 3
19 20 19 17 18 21 24 28 29 27 25 25 25 25 25 25 24 24 22 18 16 13 11 11 14 15 14 10 7 7 7 6 4 2 1 2 4 5 4 3 4 5 5
22 22 19 16 15 17 20 23 25 25 23 22 22 24 25 26 26 25 23 22 20 16 13 14 16 16 14 10 6 6 8 8 7 4 2 2 3 4 4 3 3 4 5
21 20 18 16 16 17 18 20 22 23 23 22 22 24 26 28 28 27 25 24 24 20 19 19 18 16 13 9 5 4 6 7 8 7 4 3 3 4 4 4 4 4 4
18 18 17 17 18 19 19 20 23 24 24 23 22 24 27 28 30 28 25 24 24 24 24 23 21 17 13 9 5 3 5 7 7 6 6 6 5 4 4 5 6 6 4
18 18 17 17 19 21 23 24 25 25 24 22 22 24 27 28 29 28 24 22 22 24 26 26 23 17 14 11 5 3 6 8 7 6 7 7 6 4 3 4 6 6 4
22 21 20 20 21 24 26 27 27 25 23 22 22 25 27 27 26 25 24 22 22 24 26 26 21 16 14 12 6 4 6 8 9 8 6 5 4 3 1 2 4 4 3
26 25 23 22 22 24 26 26 26 25 24 24 24 26 26 25 24 23 23 23 23 25 25 22 19 15 13 10 6 3 3 5 8 8 6 4 2 1 0 1 2 2 1
28 27 24 21 21 20 21 23 24 24 25 25 25 24 23 22 22 21 22 22 22 23 22 18 15 14 12 9 6 3 2 2 4 6 5 3 1 0 0 0 1 1 0
23 22 20 19 19 18 17 18 21 23 24 24 24 23 22 21 20 19 19 19 20 19 17 13 10 9 10 8 6 4 4 3 3 3 3 2 0 0 0 0 0 0 0
13 13 14 16 17 17 16 16 17 19 22 23 24 23 22 20 19 17 16 16 15 14 10 7 6 6 6 6 5 5 5 5 4 3 3 2 1 1 1 0 0 0 0
8 8 10 13 16 17 16 15 15 16 18 21 24 23 22 19 17 16 13 11 11 10 7 5 4 4 4 3 3 3 4 5 4 2 3 3 2 2 2 1 0 0 0